Change the Weather History Date:

Tuesday, February 12, 2013

  Actual Average (KAXO) Record (KAXO)
Temperature  
Mean Temperature 64 °F -  
Max Temperature 71 °F 60 °F 71 °F (2013)
Min Temperature 57 °F 56 °F 42 °F (2014)
Degree Days  
Heating Degree Days 1    
Growing Degree Days 14 (Base 50)    
Moisture  
Dew Point 63 °F    
Average Humidity 96    
Maximum Humidity 100    
Minimum Humidity 88    
Precipitation  
Precipitation 0.00 in - - ()
Sea Level Pressure  
Sea Level Pressure 29.88 in    
Wind  
Wind Speed 10 mph (SE)    
Max Wind Speed 18 mph    
Max Gust Speed 29 mph    
Visibility 6 miles    
Events Rain    
Averages and records for this station are not official NWS values.
T = Trace of Precipitation, MM = Missing Value Source: NWS Daily Summary

Daily Weather History Graph

Daily Weather History Graph

Search for Another Location

Airport or City:

Trip Planner

Search our weather history database for the weather conditions in past years. The results will help you decide how hot, cold, wet, or windy it might be!

Date:

Astronomy

Feb. 12, 2013 Rise Set
Actual Time 6:42 AM CST 5:48 PM CST
Civil Twilight 6:18 AM CST 6:12 PM CST
Nautical Twilight 5:50 AM CST 6:40 PM CST
Astronomical Twilight 5:22 AM CST 7:08 PM CST
Moon 7:56 AM CST (2/12) 8:30 PM CST (2/12)
Length of Visible Light 11h 54m
Length of Day
11h 05m
Waxing Crescent, 7% of the Moon is Illuminated
Feb 12
Waxing Crescent
Feb 17
First Quarter
Feb 25
Full
Mar 4
Last Quarter
Mar 11
New

Hourly Weather History & Observations

Time (CST) Temp. Dew Point Humidity Pressure Visibility Wind Dir Wind Speed Gust Speed Precip Events Conditions
12:15 AM 62.6 °F 60.8 °F 94% 30.02 in 10.0 mi NE 10.4 mph - N/A   Overcast
12:35 AM 62.6 °F 60.8 °F 94% 30.02 in 10.0 mi NE 6.9 mph 16.1 mph N/A   Overcast
12:55 AM 62.6 °F 60.8 °F 94% 30.01 in 10.0 mi NE 12.7 mph 16.1 mph N/A   Overcast
1:15 AM 62.6 °F 60.8 °F 94% 30.01 in 10.0 mi NE 10.4 mph - N/A   Overcast
1:35 AM 62.6 °F 60.8 °F 94% 29.99 in 10.0 mi ENE 11.5 mph - N/A   Overcast
1:55 AM 62.6 °F 60.8 °F 94% 29.98 in 10.0 mi ENE 11.5 mph 17.3 mph N/A   Mostly Cloudy
2:15 AM 62.6 °F 60.8 °F 94% 29.98 in 10.0 mi ENE 6.9 mph - N/A   Mostly Cloudy
2:35 AM 60.8 °F 60.8 °F 100% 29.97 in 10.0 mi ENE 9.2 mph - N/A   Mostly Cloudy
2:55 AM 60.8 °F 60.8 °F 100% 29.97 in 10.0 mi ENE 11.5 mph 16.1 mph N/A   Mostly Cloudy
3:15 AM 60.8 °F 60.8 °F 100% 29.97 in 10.0 mi NE 6.9 mph 16.1 mph N/A   Overcast
3:35 AM 60.8 °F 60.8 °F 100% 29.96 in 10.0 mi NNE 8.1 mph - N/A   Overcast
3:55 AM 60.8 °F 60.8 °F 100% 29.96 in 10.0 mi NNE 8.1 mph - N/A   Overcast
4:15 AM 60.8 °F 60.8 °F 100% 29.95 in 10.0 mi NNE 10.4 mph - N/A   Overcast
4:35 AM 60.8 °F 60.8 °F 100% 29.95 in 7.0 mi NE 10.4 mph - N/A   Overcast
4:55 AM 60.8 °F 60.8 °F 100% 29.96 in 7.0 mi NNE 8.1 mph - N/A   Overcast
5:15 AM 60.8 °F 60.8 °F 100% 29.95 in 7.0 mi NE 9.2 mph - N/A   Overcast
5:35 AM 60.8 °F 59.0 °F 94% 29.95 in 7.0 mi ENE 9.2 mph - N/A   Overcast
5:55 AM 60.8 °F 59.0 °F 94% 29.94 in 7.0 mi NE 9.2 mph - N/A   Overcast
6:15 AM 60.8 °F 59.0 °F 94% 29.94 in 5.0 mi NE 9.2 mph - N/A   Overcast
6:35 AM 59.0 °F 59.0 °F 100% 29.94 in 4.0 mi NE 6.9 mph - N/A   Overcast
6:55 AM 57.2 °F 57.2 °F 100% 29.93 in 2.0 mi ENE 9.2 mph - N/A   Overcast
7:15 AM 57.2 °F 57.2 °F 100% 29.92 in 1.2 mi ENE 5.8 mph - N/A   Overcast
7:35 AM 59.0 °F 57.2 °F 94% 29.92 in 1.0 mi ENE 4.6 mph - N/A   Overcast
7:55 AM 59.0 °F 59.0 °F 100% 29.92 in 0.8 mi East 6.9 mph - N/A   Overcast
8:15 AM 59.0 °F 59.0 °F 100% 29.92 in 0.8 mi East 6.9 mph - N/A   Overcast
8:35 AM 59.0 °F 59.0 °F 100% 29.93 in 2.0 mi East 4.6 mph - N/A   Overcast
8:55 AM 59.0 °F 59.0 °F 100% 29.92 in 1.8 mi East 6.9 mph - N/A   Overcast
9:15 AM 59.0 °F 59.0 °F 100% 29.92 in 1.2 mi East 5.8 mph - N/A   Overcast
9:35 AM 60.8 °F 60.8 °F 100% 29.91 in 1.8 mi ESE 5.8 mph - N/A   Overcast
9:55 AM 60.8 °F 60.8 °F 100% 29.90 in 3.0 mi East 8.1 mph - N/A   Overcast
10:15 AM 62.6 °F 60.8 °F 94% 29.90 in 4.0 mi ESE 8.1 mph - N/A   Overcast
10:35 AM 62.6 °F 60.8 °F 94% 29.89 in 4.0 mi ESE 11.5 mph 17.3 mph N/A   Overcast
10:55 AM 62.6 °F 62.6 °F 100% 29.88 in 4.0 mi ESE 6.9 mph - N/A   Overcast
11:15 AM 66.2 °F 64.4 °F 94% 29.87 in 5.0 mi ESE 10.4 mph - N/A   Overcast
11:35 AM 66.2 °F 64.4 °F 94% 29.87 in 5.0 mi SE 11.5 mph - N/A Rain Light Rain
11:55 AM 64.4 °F 64.4 °F 100% 29.85 in 4.0 mi SE 9.2 mph - N/A   Overcast
12:15 PM 66.2 °F 64.4 °F 94% 29.84 in 5.0 mi SSE 15.0 mph 19.6 mph N/A   Overcast
12:35 PM 68.0 °F 66.2 °F 94% 29.84 in 5.0 mi SSE 18.4 mph 26.5 mph N/A   Overcast
12:55 PM 69.8 °F 68.0 °F 94% 29.83 in 5.0 mi SSE 15.0 mph 23.0 mph N/A   Overcast
1:15 PM 71.6 °F 68.0 °F 88% 29.82 in 7.0 mi South 18.4 mph 27.6 mph N/A   Overcast
1:35 PM 71.6 °F 68.0 °F 88% 29.81 in 5.0 mi South 15.0 mph 20.7 mph N/A   Overcast
1:55 PM 71.6 °F 68.0 °F 88% 29.80 in 5.0 mi South 16.1 mph 27.6 mph N/A   Overcast
2:15 PM 71.6 °F 68.0 °F 88% 29.79 in 5.0 mi South 16.1 mph 28.8 mph N/A   Overcast
2:35 PM 69.8 °F 68.0 °F 94% 29.79 in 5.0 mi South 16.1 mph 23.0 mph N/A   Overcast
2:55 PM 69.8 °F 68.0 °F 94% 29.79 in 5.0 mi South 15.0 mph 23.0 mph N/A   Overcast
3:15 PM 69.8 °F 68.0 °F 94% 29.78 in 5.0 mi South 13.8 mph 18.4 mph N/A   Overcast
3:35 PM 68.0 °F 66.2 °F 94% 29.78 in 4.0 mi South 16.1 mph 20.7 mph N/A Rain Light Rain
3:55 PM 68.0 °F 66.2 °F 94% 29.79 in 5.0 mi SSW 15.0 mph 20.7 mph N/A   Overcast
4:15 PM 68.0 °F 66.2 °F 94% 29.78 in 5.0 mi SSW 16.1 mph 21.9 mph N/A   Overcast
4:35 PM 68.0 °F 66.2 °F 94% 29.78 in 4.0 mi SSW 16.1 mph 19.6 mph N/A   Overcast
4:55 PM 68.0 °F 64.4 °F 88% 29.79 in 4.0 mi SSW 15.0 mph 24.2 mph N/A   Overcast
5:15 PM 68.0 °F 64.4 °F 88% 29.79 in 4.0 mi SSW 15.0 mph 21.9 mph N/A   Overcast
5:35 PM 66.2 °F 64.4 °F 94% 29.79 in 4.0 mi SSW 11.5 mph 19.6 mph N/A   Overcast
5:55 PM 66.2 °F 64.4 °F 94% 29.79 in 5.0 mi SSW 13.8 mph 18.4 mph N/A   Overcast
6:15 PM 64.4 °F 64.4 °F 100% 29.79 in 4.0 mi SSW 13.8 mph 19.6 mph N/A   Overcast
6:35 PM 64.4 °F 64.4 °F 100% 29.80 in 4.0 mi SSW 10.4 mph 17.3 mph N/A   Overcast
6:55 PM 64.4 °F 64.4 °F 100% 29.81 in 4.0 mi SSW 11.5 mph 16.1 mph N/A   Overcast
7:15 PM 64.4 °F 64.4 °F 100% 29.81 in 5.0 mi SSW 11.5 mph - N/A   Overcast
7:35 PM 64.4 °F 64.4 °F 100% 29.81 in 5.0 mi SW 9.2 mph - N/A   Overcast
8:15 PM 64.4 °F 64.4 °F 100% 29.81 in 7.0 mi SW 11.5 mph 19.6 mph N/A   Scattered Clouds
8:35 PM 66.2 °F 64.4 °F 94% 29.81 in 7.0 mi SW 12.7 mph 18.4 mph N/A   Scattered Clouds
8:55 PM 66.2 °F 64.4 °F 94% 29.81 in 7.0 mi SW 8.1 mph - N/A   Scattered Clouds
9:15 PM 66.2 °F 64.4 °F 94% 29.81 in 7.0 mi SW 6.9 mph - N/A   Mostly Cloudy
9:35 PM 66.2 °F 64.4 °F 94% 29.82 in 7.0 mi WSW 12.7 mph 17.3 mph N/A   Mostly Cloudy
9:55 PM 66.2 °F 64.4 °F 94% 29.83 in 7.0 mi WSW 8.1 mph 16.1 mph N/A   Clear
10:15 PM 64.4 °F 64.4 °F 100% 29.84 in 7.0 mi WSW 5.8 mph - N/A   Clear
10:35 PM 64.4 °F 62.6 °F 94% 29.84 in 7.0 mi WSW 8.1 mph - N/A   Clear
10:55 PM 64.4 °F 62.6 °F 94% 29.84 in 7.0 mi WSW 5.8 mph - N/A   Clear
11:15 PM 64.4 °F 62.6 °F 94% 29.83 in 7.0 mi WSW 3.5 mph - N/A   Clear
11:35 PM 62.6 °F 62.6 °F 100% 29.84 in 5.0 mi West 9.2 mph - N/A   Clear
11:55 PM 62.6 °F 62.6 °F 100% 29.84 in 7.0 mi West 6.9 mph - N/A   Clear